Weather History for KCTB - November, 2013

Change the Weather History Date:

Saturday, November 23, 2013

  Actual Average Record
Temperature  
Mean Temperature 29 °F 27 °F  
Max Temperature 49 °F 37 °F 62 °F (2005)
Min Temperature 9 °F 18 °F -25 °F (1950)
Degree Days  
Heating Degree Days 36 38  
Month to date heating degree days 858 766  
Since 1 July heating degree days 1879 1990  
Cooling Degree Days 0 0  
Month to date cooling degree days 0 0  
Year to date cooling degree days 226 162  
Moisture  
Dew Point 14 °F    
Average Humidity 58    
Maximum Humidity 84    
Minimum Humidity 31    
Precipitation  
Precipitation 0.00 in 0.01 in 0.10 in (1946)
Month to date precipitation 0.36 0.29  
Year to date precipitation 14.41 10.61  
Snow  
Snow 0.00 in - - ()
Snow Depth -    
Sea Level Pressure  
Sea Level Pressure 30.35 in    
Wind  
Wind Speed 5 mph (SSW)    
Max Wind Speed 16 mph    
Max Gust Speed 22 mph    
Visibility 10 miles    
Events      
T = Trace of Precipitation, MM = Missing Value Source: NWS Daily Summary

Daily Weather History Graph

Daily Weather History Graph

Search for Another Location

Airport or City:

Trip Planner

Search our weather history database for the weather conditions in past years. The results will help you decide how hot, cold, wet, or windy it might be!

Date:

Astronomy

Nov. 23, 2013 Rise Set
Actual Time 7:50 AM MST 4:41 PM MST
Civil Twilight 7:14 AM MST 5:16 PM MST
Nautical Twilight 6:36 AM MST 5:55 PM MST
Astronomical Twilight 5:58 AM MST 6:33 PM MST
Moon 10:25 PM MST (11/23) 11:59 AM MST (11/23)
Length of Visible Light 10h 01m
Length of Day
8h 51m
Waning Gibbous, 69% of the Moon is Illuminated
Nov 23
Waning Gibbous
Nov 25
Last Quarter
Dec 2
New
Dec 9
First Quarter
Dec 17
Full

Hourly Weather History & Observations

Time (MST) Temp. Windchill Dew Point Humidity Pressure Visibility Wind Dir Wind Speed Gust Speed Precip Events Conditions
12:56 AM 15.1 °F 9.4 °F 9.0 °F 77% 30.59 in 10.0 mi SW 3.5 mph - N/A   Clear
1:56 AM 15.1 °F 7.7 °F 10.0 °F 80% 30.57 in 10.0 mi SW 4.6 mph - N/A   Clear
2:56 AM 12.0 °F - 8.1 °F 84% 30.56 in 10.0 mi Calm Calm - N/A   Clear
3:56 AM 10.0 °F - 6.1 °F 84% 30.56 in 10.0 mi Calm Calm - N/A   Clear
4:56 AM 12.9 °F 6.9 °F 7.0 °F 77% 30.54 in 10.0 mi South 3.5 mph - N/A   Clear
5:56 AM 10.0 °F - 6.1 °F 84% 30.54 in 10.0 mi Calm Calm - N/A   Clear
6:56 AM 15.1 °F 9.4 °F 8.1 °F 74% 30.52 in 10.0 mi SE 3.5 mph - N/A   Clear
7:56 AM 12.9 °F 5.2 °F 8.1 °F 81% 30.51 in 10.0 mi SSE 4.6 mph - N/A   Clear
8:56 AM 17.1 °F 10.0 °F 10.9 °F 77% 30.48 in 10.0 mi SSE 4.6 mph - N/A   Clear
9:56 AM 21.0 °F 14.6 °F 14.0 °F 74% 30.47 in 10.0 mi SE 4.6 mph - N/A   Clear
10:56 AM 28.0 °F 20.0 °F 18.0 °F 66% 30.42 in 10.0 mi SSE 8.1 mph - N/A   Clear
11:56 AM 32.0 °F 25.6 °F 19.0 °F 59% 30.39 in 10.0 mi SE 6.9 mph - N/A   Clear
12:56 PM 37.9 °F 31.5 °F 21.0 °F 51% 30.34 in 10.0 mi SE 9.2 mph - N/A   Clear
1:56 PM 46.0 °F 42.5 °F 21.9 °F 39% 30.29 in 10.0 mi South 6.9 mph - N/A   Clear
2:56 PM 48.0 °F - 19.9 °F 33% 30.27 in 10.0 mi SW 12.7 mph - N/A   Clear
3:56 PM 44.1 °F 37.7 °F 19.0 °F 37% 30.26 in 10.0 mi WSW 12.7 mph - N/A   Clear
4:56 PM 39.9 °F 31.1 °F 18.0 °F 41% 30.23 in 10.0 mi WSW 17.3 mph - N/A   Clear
5:56 PM 39.9 °F 30.2 °F 17.1 °F 40% 30.22 in 10.0 mi WSW 20.7 mph - N/A   Clear
6:56 PM 41.0 °F 31.1 °F 17.1 °F 38% 30.18 in 10.0 mi West 23.0 mph - N/A   Clear
7:56 PM 41.0 °F 31.9 °F 16.0 °F 36% 30.16 in 10.0 mi WSW 19.6 mph 24.2 mph N/A   Clear
8:56 PM 42.1 °F 33.3 °F 16.0 °F 35% 30.12 in 10.0 mi WSW 19.6 mph - N/A   Clear
9:56 PM 43.0 °F 34.0 °F 14.0 °F 31% 30.09 in 10.0 mi WSW 21.9 mph 27.6 mph N/A   Clear
10:56 PM 44.1 °F 34.6 °F 15.1 °F 31% 30.05 in 10.0 mi West 26.5 mph 35.7 mph N/A   Clear
11:56 PM 44.1 °F 35.0 °F 15.1 °F 31% 30.04 in 10.0 mi West 24.2 mph 32.2 mph N/A   Clear